[[{"header":{"parameterUnit":"m.s-1","parameterCategory":1,"la1":30.2991,"la2":30.254,"lo1":-89.0895,"lo2":-89.0444,"dy":0.0017,"dx":0.0017,"nx":28,"ny":28,"refTime":"2025-09-16T09:00:00:Z","depth":0,"parameterNumber":2,"parameterNumberName":"U-component_of_WINDS"},"data":[0,0,0,0,0,0,0,0,0,0,0,0,0,0,0,0,0,0,0,0,0,0,0,0,0,0,0,0,0,0,0,0,0,0,0,0,0,0,0,0,0,0,0,0,0,0,0,0,0,0,0,0,0,0,0,0,0,0,-1.6828,-1.6828,0,-1.6803,-1.6803,-1.6803,-1.6752,-1.6751,-1.675,-1.6749,-1.6724,-1.6724,-1.6725,0,0,0,0,0,0,0,0,0,0,0,0,0,-1.6834,-1.6834,-1.6828,-1.6828,-1.6828,-1.6803,-1.6803,-1.6803,-1.6752,-1.6751,-1.675,-1.6749,-1.6724,-1.6724,-1.6725,0,0,0,0,0,0,0,0,0,0,0,0,0,-1.6822,-1.6834,-1.6828,-1.68,-1.6797,-1.6803,-1.6803,-1.6802,-1.6753,-1.6751,-1.675,-1.6748,-1.6724,-1.6724,-1.6725,-1.6757,0,0,-1.6726,-1.6726,0,0,0,0,0,0,0,0,-1.6823,-1.6822,-1.6804,-1.6802,-1.6798,-1.6779,-1.6796,-1.6787,-1.6753,-1.6769,-1.6749,-1.6747,-1.6744,-1.6742,-1.6741,-1.6756,-1.6755,-1.6726,-1.6726,-1.6726,-1.6726,0,0,0,0,0,0,0,-1.6824,-1.6823,-1.6818,-1.6804,-1.68,-1.6788,-1.6785,-1.6794,-1.6765,-1.6768,-1.6764,-1.6762,-1.6742,-1.6741,-1.674,-1.6755,-1.6726,-1.6726,-1.6727,-1.6727,-1.6796,-1.6797,0,0,0,0,0,0,-1.6829,-1.6824,-1.6819,-1.6818,-1.6807,-1.6789,-1.6786,-1.6787,-1.6765,-1.676,-1.6763,-1.676,-1.6741,-1.674,-1.6739,-1.6776,-1.6726,-1.6727,-1.6727,-1.6794,-1.6796,-1.6798,0,0,0,0,0,0,-1.6829,-1.6829,-1.682,-1.682,-1.6818,-1.6791,-1.6793,-1.6787,-1.6786,-1.6761,-1.6756,-1.6767,-1.674,-1.6738,-1.6753,-1.6774,-1.6727,-1.6727,-1.6792,-1.6795,-1.6797,-1.685,0,0,0,0,0,0,-1.6829,-1.6829,-1.6841,-1.682,-1.6818,-1.6835,-1.6794,-1.6788,-1.6787,-1.6782,-1.6764,-1.6759,-1.6738,-1.6753,-1.6754,-1.6774,-1.6728,-1.679,-1.6793,-1.6796,-1.6846,-1.6853,-1.686,0,0,0,0,0,-1.683,-1.6857,-1.6842,-1.6842,-1.6832,-1.6836,-1.6834,-1.6809,-1.6789,-1.68,-1.6785,-1.676,-1.6772,-1.6755,-1.6755,-1.6776,-1.6789,-1.6792,-1.6796,-1.6843,-1.6852,-1.686,0,0,0,0,0,0,-1.6881,-1.6854,-1.6837,-1.6858,-1.685,-1.6827,-1.6841,-1.682,-1.6818,-1.6813,-1.6782,-1.6779,-1.6798,-1.6788,-1.677,-1.6806,-1.6776,-1.678,-1.6812,-1.682,-1.6827,-1.6829,-1.6728,0,0,0,0,0,-1.6895,-1.69,-1.6876,-1.6897,-1.6894,-1.6869,-1.6869,-1.6851,-1.6841,-1.6837,-1.6822,-1.6814,-1.6816,-1.6818,-1.6818,-1.6844,-1.684,-1.6859,-1.6866,-1.6872,-1.6876,-1.6889,-1.6897,-1.6809,-1.6809,-1.6809,0,0,-1.6923,-1.6909,-1.6914,-1.6907,-1.6898,-1.6904,-1.6866,-1.6874,-1.6878,-1.6838,-1.6851,-1.684,-1.6829,-1.685,-1.6858,-1.6843,-1.6899,-1.6876,-1.6881,-1.6882,-1.6894,-1.6902,-1.6909,-1.6812,-1.6811,-1.6811,0,0,-1.6978,-1.6968,-1.6984,-1.6976,-1.6964,-1.6947,-1.6951,-1.6932,-1.6923,-1.6936,-1.6906,-1.6911,-1.6915,-1.6908,-1.6905,-1.6958,-1.6935,-1.6959,-1.6996,-1.701,-1.7017,-1.7023,-1.7041,-1.7049,-1.6963,-1.6963,-1.6963,0,-1.7015,-1.7023,-1.6995,-1.7005,-1.7003,-1.6968,-1.6984,-1.6978,-1.6966,-1.6966,-1.6949,-1.6953,-1.6943,-1.6961,-1.6974,-1.6973,-1.6977,-1.6961,-1.7018,-1.7023,-1.7029,-1.7046,-1.7054,-1.6966,-1.6966,-1.6965,-1.6965,0,-1.7069,-1.7075,-1.709,-1.7079,-1.7079,-1.7092,-1.7067,-1.707,-1.7052,-1.7037,-1.7051,-1.7038,-1.7035,-1.7038,-1.702,-1.7054,-1.7045,-1.7023,-1.6992,-1.704,-1.7057,-1.7063,-1.697,-1.6969,-1.6968,-1.6968,0,0,-1.7155,-1.7129,-1.7135,-1.713,-1.7114,-1.7118,-1.713,-1.7127,-1.713,-1.7124,-1.7133,-1.7137,-1.7117,-1.7114,-1.7095,-1.7107,-1.715,-1.7084,-1.7083,-1.7097,-1.7187,-1.7204,-1.7212,-1.7135,-1.7136,-1.7137,-1.7188,0,-1.7206,-1.7224,-1.72,-1.7225,-1.723,-1.7196,-1.7207,-1.7198,-1.7185,-1.7188,-1.7173,-1.7177,-1.715,-1.7148,-1.7158,-1.7143,-1.7168,-1.7139,-1.7144,-1.7144,-1.7147,-1.722,-1.7238,-1.7286,-1.7194,-1.7195,-1.7196,0,-1.7268,-1.7264,-1.7289,-1.7271,-1.7272,-1.7282,-1.7278,-1.7281,-1.7271,-1.726,-1.7257,-1.7235,-1.7245,-1.7216,-1.7231,-1.7211,-1.7212,-1.7205,-1.7206,-1.7206,-1.7173,-1.7221,-1.7301,-1.7308,-1.7206,-1.7205,-1.7204,0,-1.7328,-1.7329,-1.7344,-1.7341,-1.732,-1.7328,-1.732,-1.7309,-1.7308,-1.7305,-1.7304,-1.7302,-1.7301,-1.73,-1.7278,-1.7258,-1.7295,-1.7264,-1.7287,-1.7288,-1.7296,-1.7296,-1.7377,-1.7297,-1.7297,-1.7297,-1.7297,0,-1.7387,-1.7404,-1.7371,-1.738,-1.7397,-1.737,-1.7388,-1.7377,-1.7367,-1.7373,-1.7344,-1.7351,-1.7322,-1.7326,-1.7308,-1.7323,-1.7323,-1.7315,-1.731,-1.7317,-1.7319,-1.7317,-1.7313,-1.7299,-1.7298,-1.7298,-1.7298,0,-1.7458,-1.7436,-1.745,-1.743,-1.7425,-1.7439,-1.7422,-1.743,-1.7415,-1.7424,-1.7424,-1.7401,-1.7404,-1.7382,-1.7381,-1.7369,-1.7392,-1.7382,-1.7396,-1.7392,-1.7417,-1.7415,-1.75,-1.7509,-1.7424,-1.7425,-1.7425,0,-1.7497,-1.7509,-1.749,-1.7492,-1.7486,-1.749,-1.7489,-1.7463,-1.7464,-1.7453,-1.7463,-1.7463,-1.7462,-1.7469,-1.7452,-1.7451,-1.744,-1.747,-1.744,-1.7447,-1.7441,-1.744,-1.7441,-1.7476,-1.7477,-1.7478,-1.7479,0,-1.7569,-1.7558,-1.7558,-1.7555,-1.7556,-1.7552,-1.7547,-1.755,-1.7522,-1.7524,-1.7527,-1.7526,-1.7525,-1.7527,-1.7522,-1.7514,-1.7492,-1.7489,-1.7494,-1.7502,-1.7509,-1.7505,-1.7413,-1.7487,-1.7486,-1.7485,-1.7485,-1.7485,-1.7625,-1.7634,-1.7622,-1.7624,-1.7617,-1.7612,-1.7619,-1.7605,-1.7606,-1.7603,-1.7588,-1.7593,-1.7583,-1.7575,-1.757,-1.7574,-1.7559,-1.7567,-1.7569,-1.7571,-1.7576,-1.7509,-1.7573,-1.7573,-1.7572,-1.7572,-1.7572,0,-1.7696,-1.7686,-1.7688,-1.7681,-1.7683,-1.7662,-1.7654,-1.7657,-1.7662,-1.7655,-1.7654,-1.7658,-1.7659,-1.7642,-1.7641,-1.7648,-1.7637,-1.7648,-1.7647,-1.7646,-1.7589,-1.7584,-1.7656,-1.7656,-1.7656,-1.7656,-1.7656,-1.7656,-1.7733,-1.7747,-1.7734,-1.7745,-1.7735,-1.774,-1.7738,-1.7734,-1.7728,-1.7733,-1.7733,-1.7722,-1.7711,-1.7709,-1.7709,-1.7704,-1.7705,-1.772,-1.7711,-1.7658,-1.765,-1.7642,-1.7638,-1.772,-1.772,-1.7768,-1.7769,-1.7769]},{"header":{"parameterUnit":"m.s-1","parameterCategory":1,"la1":30.2991,"la2":30.254,"lo1":-89.0895,"lo2":-89.0444,"dy":0.0017,"dx":0.0017,"nx":28,"ny":28,"refTime":"2025-09-16T09:00:00:Z","depth":0,"parameterNumber":3,"parameterNumberName":"V-component_of_WINDS"},"data":[0,0,0,0,0,0,0,0,0,0,0,0,0,0,0,0,0,0,0,0,0,0,0,0,0,0,0,0,0,0,0,0,0,0,0,0,0,0,0,0,0,0,0,0,0,0,0,0,0,0,0,0,0,0,0,0,0,0,3.7089,3.7088,0,3.7046,3.7046,3.7045,3.6998,3.6997,3.6996,3.6996,3.695,3.6949,3.6949,0,0,0,0,0,0,0,0,0,0,0,0,0,3.7126,3.7126,3.7089,3.7088,3.7088,3.7046,3.7046,3.7045,3.6998,3.6997,3.6996,3.6995,3.695,3.695,3.6949,0,0,0,0,0,0,0,0,0,0,0,0,0,3.71,3.7126,3.7089,3.7059,3.7056,3.7046,3.7046,3.7045,3.6998,3.6997,3.6996,3.6995,3.695,3.695,3.6949,3.6964,0,0,3.6946,3.6946,0,0,0,0,0,0,0,0,3.7101,3.7098,3.7064,3.7061,3.7058,3.7026,3.7042,3.7018,3.6998,3.702,3.6996,3.6995,3.6976,3.6973,3.6967,3.6962,3.696,3.6946,3.6945,3.6945,3.6945,0,0,0,0,0,0,0,3.7103,3.71,3.7072,3.7063,3.706,3.7047,3.7042,3.7037,3.7004,3.7018,3.7015,3.701,3.6974,3.6968,3.6966,3.6959,3.6946,3.6945,3.6945,3.6944,3.6964,3.6965,0,0,0,0,0,0,3.711,3.7102,3.7073,3.707,3.7077,3.7047,3.7042,3.7037,3.7004,3.6998,3.7011,3.7008,3.697,3.6967,3.6964,3.6979,3.6945,3.6944,3.6944,3.6963,3.6964,3.6965,0,0,0,0,0,0,3.7111,3.7108,3.7075,3.7085,3.708,3.7048,3.7043,3.7037,3.7031,3.6999,3.6993,3.7011,3.6969,3.6965,3.6964,3.6977,3.6944,3.6943,3.6961,3.6963,3.6964,3.7009,0,0,0,0,0,0,3.7112,3.7108,3.7114,3.7086,3.708,3.7077,3.7044,3.7037,3.703,3.7026,3.6998,3.6992,3.6968,3.6966,3.6964,3.6975,3.6942,3.696,3.6962,3.6964,3.7007,3.7012,3.7017,0,0,0,0,0,3.7114,3.7128,3.7115,3.7112,3.7087,3.7077,3.7074,3.7047,3.7031,3.7036,3.7016,3.6993,3.6976,3.6966,3.6963,3.6974,3.6959,3.6961,3.6964,3.7004,3.7011,3.7017,0,0,0,0,0,0,3.7158,3.7124,3.7109,3.7115,3.71,3.7069,3.7075,3.7055,3.7043,3.704,3.7006,3.7,3.7003,3.6989,3.6979,3.6987,3.6964,3.6966,3.6996,3.7002,3.7008,3.701,3.6942,0,0,0,0,0,3.7169,3.7165,3.7135,3.7143,3.7137,3.7108,3.7103,3.7083,3.7066,3.7059,3.7038,3.7021,3.7012,3.7007,3.6997,3.7005,3.6997,3.7011,3.7016,3.7021,3.7022,3.7024,3.703,3.6972,3.6972,3.6972,0,0,3.7191,3.7172,3.7171,3.7152,3.7138,3.7134,3.7102,3.7099,3.7096,3.7058,3.7056,3.704,3.7019,3.7023,3.7023,3.7011,3.7037,3.7024,3.7028,3.7026,3.7027,3.7033,3.7038,3.6974,3.6974,3.6973,0,0,3.7228,3.7214,3.7218,3.7205,3.7185,3.7165,3.7167,3.714,3.7128,3.7126,3.7097,3.7092,3.7078,3.7064,3.7054,3.7087,3.7065,3.7085,3.7112,3.7114,3.7119,3.7122,3.7133,3.7137,3.7087,3.7087,3.7087,0,3.7257,3.725,3.7223,3.7222,3.7214,3.7181,3.7185,3.7173,3.715,3.7145,3.7132,3.7113,3.7097,3.7096,3.7104,3.7098,3.7098,3.7087,3.712,3.7124,3.7127,3.7136,3.714,3.7089,3.7089,3.7089,3.7089,0,3.7287,3.7283,3.7289,3.7268,3.7261,3.7263,3.7235,3.7231,3.7213,3.7195,3.7192,3.7172,3.7157,3.7155,3.7137,3.7152,3.7145,3.7127,3.7103,3.7135,3.7143,3.7147,3.7093,3.7092,3.7091,3.7091,0,0,3.7349,3.7314,3.7317,3.7307,3.7282,3.7278,3.7278,3.7264,3.7261,3.7246,3.7244,3.7233,3.7216,3.7206,3.7186,3.7189,3.7214,3.717,3.7169,3.7177,3.7228,3.724,3.7245,3.72,3.7201,3.7201,3.7229,0,3.738,3.7379,3.7354,3.7359,3.7355,3.7324,3.7324,3.7308,3.7291,3.7284,3.7266,3.7258,3.7237,3.723,3.7232,3.7211,3.7224,3.7209,3.7197,3.7197,3.7201,3.7249,3.7263,3.729,3.7232,3.7233,3.7233,0,3.7416,3.7405,3.7409,3.7384,3.7381,3.7382,3.7367,3.7361,3.7343,3.733,3.732,3.7297,3.7295,3.7274,3.7269,3.7259,3.7253,3.7242,3.7243,3.7239,3.7216,3.7245,3.7298,3.7301,3.7238,3.7238,3.7237,0,3.7459,3.7445,3.7446,3.7438,3.741,3.7411,3.7399,3.7379,3.7372,3.7359,3.7354,3.7341,3.7333,3.7323,3.7298,3.7285,3.7295,3.7272,3.7283,3.7284,3.7285,3.7285,3.7336,3.7284,3.7284,3.7284,3.7284,0,3.7496,3.7499,3.7465,3.7465,3.7468,3.744,3.7444,3.7429,3.7412,3.7408,3.7381,3.7377,3.7345,3.7338,3.7318,3.7316,3.7313,3.7302,3.7296,3.7303,3.7305,3.7297,3.7294,3.7285,3.7285,3.7285,3.7285,0,3.7544,3.7521,3.7519,3.7493,3.7486,3.7489,3.7466,3.7465,3.7447,3.7442,3.744,3.7411,3.7402,3.7376,3.7359,3.7346,3.7348,3.7339,3.7355,3.7351,3.7363,3.7362,3.7409,3.7413,3.7361,3.7362,3.7362,0,3.7567,3.757,3.7544,3.754,3.7529,3.7523,3.7516,3.7489,3.7483,3.7462,3.7463,3.7451,3.744,3.7426,3.7403,3.739,3.7379,3.7396,3.7376,3.7383,3.7377,3.7376,3.7376,3.74,3.7401,3.7401,3.7402,0,3.7612,3.7601,3.7592,3.758,3.7573,3.7561,3.7548,3.7546,3.7516,3.751,3.75,3.7492,3.7475,3.7463,3.7447,3.7433,3.7412,3.7409,3.741,3.7417,3.7425,3.7419,3.7365,3.7407,3.7407,3.7406,3.7406,3.7406,3.7647,3.7647,3.7629,3.7621,3.7608,3.7597,3.7594,3.7577,3.7568,3.7553,3.7538,3.7529,3.751,3.7486,3.7474,3.7466,3.7455,3.7458,3.7459,3.7459,3.7462,3.7428,3.7464,3.7463,3.7463,3.7463,3.7463,0,3.7689,3.7676,3.7668,3.7652,3.7645,3.7627,3.7612,3.7607,3.76,3.7585,3.7575,3.7563,3.7552,3.7529,3.7515,3.7513,3.7503,3.751,3.7509,3.7506,3.7473,3.7472,3.7519,3.7518,3.7518,3.7518,3.7518,3.7518,3.7709,3.7709,3.7695,3.7688,3.7675,3.7667,3.766,3.7649,3.7636,3.7625,3.7616,3.7601,3.7582,3.7567,3.7555,3.7549,3.7544,3.7554,3.7544,3.7514,3.7508,3.7503,3.7502,3.7554,3.7554,3.7577,3.7578,3.7578]}]]